This demonstration page uses our WeatherBlox Daily Observations layout. Learn more.

Left ArrowRight Arrow

36.19886, -115.1175

Hourly Observations for February 3, 2017

Temp ( °F °C ) Dew Point ( °F °C ) Humidity (%) Winds ( mph kmh ) Pressure ( in mb ) Visibility ( mi km ) Precip ( " mm )
12:53 am 00:53 Clear 50 10 33 0.6 52 52 Calm 30.08 1019 10 16 0.00 0.00
1:53 am 01:53 Clear 49 9.4 34 1.1 56 56 NW 3 6 30.07 1018 10 16 0.00 0.00
2:53 am 02:53 Clear 49 9.4 33 0.6 55 55 N 5 7 30.06 1018 10 16 0.00 0.00
3:53 am 03:53 Cloudy 49 9.4 34 1.1 56 56 Calm 30.05 1018 10 16 0.00 0.00
4:53 am 04:53 Mostly Clear 47 8.3 35 1.7 63 63 W 5 7 30.06 1018 10 16 0.00 0.00
5:53 am 05:53 Clear 48 8.9 34 1.1 58 58 Calm 30.06 1018 10 16 0.00 0.00
6:53 am 06:53 Cloudy 49 9.4 33 0.6 55 55 Calm 30.06 1018 10 16 0.00 0.00
7:53 am 07:53 Cloudy 50 10 36 2.2 59 59 N 5 7 30.08 1019 10 16 0.00 0.00
8:53 am 08:53 Cloudy 55 12.8 33 0.6 44 44 SE 6 9 30.08 1019 10 16 0.00 0.00
9:53 am 09:53 Partly Cloudy 58 14.4 31 -0.6 36 36 E 7 11 30.07 1018 10 16 0.00 0.00
10:53 am 10:53 Sunny 62 16.7 32 0 32 32 ESE 10 17 30.04 1017 10 16 0.00 0.00
11:53 am 11:53 Partly Cloudy 66 18.9 34 1.1 30 30 SE 14 22 29.98 1015 10 16 0.00 0.00
12:53 pm 12:53 Mostly Cloudy 70 21.1 36 2.2 29 29 WSW 10 17 29.95 1014 10 16 0.00 0.00
1:53 pm 13:53 Mostly Cloudy 68 20 38 3.3 33 33 SW 20 31 29.94 1014 10 16 0.00 0.00
2:53 pm 14:53 Mostly Sunny 67 19.4 42 5.6 41 41 SW 23 37 29.94 1014 10 16 0.00 0.00
3:53 pm 15:53 Cloudy 66 18.9 42 5.6 42 42 S 14 22 29.96 1014 10 16 0.00 0.00
4:53 pm 16:53 Mostly Cloudy 65 18.3 41 5 42 42 SSW 25 41 29.93 1014 10 16 0.00 0.00
5:53 pm 17:53 Mostly Cloudy 64 17.8 41 5 43 43 S 15 24 29.96 1015 10 16 0.00 0.00
6:53 pm 18:53 Mostly Cloudy 63 17.2 39 3.9 41 41 S 14 22 29.97 1015 10 16 0.00 0.00
7:53 pm 19:53 Partly Cloudy 62 16.7 40 4.4 44 44 S 21 33 29.97 1015 10 16 0.00 0.00
8:53 pm 20:53 Clear 62 16.7 41 5 46 46 SSW 21 33 29.96 1015 10 16 0.00 0.00
9:53 pm 21:53 Clear 60 15.6 41 5 50 50 SW 25 41 29.97 1015 10 16 0.00 0.00
10:53 pm 22:53 Clear 59 15 38 3.3 46 46 SW 23 37 29.98 1015 10 16 0.00 0.00
11:53 pm 23:53 Clear 57 13.9 38 3.3 49 49 S 13 20 30.00 1016 10 16 0.00 0.00

Powered by AerisWeather